Year,Month,Day,Hour,Minute,Value (Times are PST for temperature in C)
2016,02,16,00,00,9.70
2016,02,16,00,01,9.70
2016,02,16,00,02,9.70
2016,02,16,00,03,9.70
2016,02,16,00,04,9.70
2016,02,16,00,05,9.70
2016,02,16,00,06,9.70
2016,02,16,00,07,9.70
2016,02,16,00,08,9.60
2016,02,16,00,09,9.60
2016,02,16,00,10,9.60
2016,02,16,00,11,9.60
2016,02,16,00,12,9.60
2016,02,16,00,13,9.60
2016,02,16,00,14,9.70
2016,02,16,00,15,9.70
2016,02,16,00,16,9.70
2016,02,16,00,17,9.70
2016,02,16,00,18,9.70
2016,02,16,00,19,9.70
2016,02,16,00,20,9.70
2016,02,16,00,21,9.70
2016,02,16,00,22,9.70
2016,02,16,00,23,9.70
2016,02,16,00,24,9.80
2016,02,16,00,25,9.80
2016,02,16,00,26,9.80
2016,02,16,00,27,9.70
2016,02,16,00,28,9.70
2016,02,16,00,29,9.70
2016,02,16,00,30,9.70
2016,02,16,00,31,9.70
2016,02,16,00,32,9.70
2016,02,16,00,33,9.80
2016,02,16,00,34,9.80
2016,02,16,00,35,9.80
2016,02,16,00,36,9.80
2016,02,16,00,37,9.80
2016,02,16,00,38,9.80
2016,02,16,00,39,9.80
2016,02,16,00,40,9.80
2016,02,16,00,41,9.80
2016,02,16,00,42,9.80
2016,02,16,00,43,9.80
2016,02,16,00,44,9.80
2016,02,16,00,45,9.70
2016,02,16,00,46,9.70
2016,02,16,00,47,9.70
2016,02,16,00,48,9.70
2016,02,16,00,49,9.70
2016,02,16,00,50,9.70
2016,02,16,00,51,9.60
2016,02,16,00,52,9.60
2016,02,16,00,53,9.60
2016,02,16,00,54,9.60
2016,02,16,00,55,9.60
2016,02,16,00,56,9.60
2016,02,16,00,57,9.60
2016,02,16,00,58,9.60
2016,02,16,00,59,9.60
2016,02,16,01,00,9.50
2016,02,16,01,01,9.50
2016,02,16,01,02,9.50
2016,02,16,01,03,9.50
2016,02,16,01,04,9.50
2016,02,16,01,05,9.50
2016,02,16,01,06,9.50
2016,02,16,01,07,9.50
2016,02,16,01,08,9.50
2016,02,16,01,09,9.50
2016,02,16,01,10,9.50
2016,02,16,01,11,9.50
2016,02,16,01,12,9.50
2016,02,16,01,13,9.50
2016,02,16,01,14,9.50
2016,02,16,01,15,9.50
2016,02,16,01,16,9.50
2016,02,16,01,17,9.50
2016,02,16,01,18,9.50
2016,02,16,01,19,9.50
2016,02,16,01,20,9.40
2016,02,16,01,21,9.40
2016,02,16,01,22,9.40
2016,02,16,01,23,9.40
2016,02,16,01,24,9.40
2016,02,16,01,25,9.40
2016,02,16,01,26,9.40
2016,02,16,01,27,9.40
2016,02,16,01,28,9.40
2016,02,16,01,29,9.40
2016,02,16,01,30,9.40
2016,02,16,01,31,9.40
2016,02,16,01,32,9.40
2016,02,16,01,33,9.40
2016,02,16,01,34,9.40
2016,02,16,01,35,9.30
2016,02,16,01,36,9.40
2016,02,16,01,37,9.40
2016,02,16,01,38,9.40
2016,02,16,01,39,9.40
2016,02,16,01,40,9.40
2016,02,16,01,41,9.40
2016,02,16,01,42,9.40
2016,02,16,01,43,9.40
2016,02,16,01,44,9.40
2016,02,16,01,45,9.40
2016,02,16,01,46,9.40
2016,02,16,01,47,9.40
2016,02,16,01,48,9.30
2016,02,16,01,49,9.30
2016,02,16,01,50,9.30
2016,02,16,01,51,9.40
2016,02,16,01,52,9.40
2016,02,16,01,53,9.40
2016,02,16,01,54,9.50
2016,02,16,01,55,9.50
2016,02,16,01,56,9.50
2016,02,16,01,57,9.50
2016,02,16,01,58,9.50
2016,02,16,01,59,9.50
2016,02,16,02,00,9.50
2016,02,16,02,01,9.50
2016,02,16,02,02,9.50
2016,02,16,02,03,9.50
2016,02,16,02,04,9.50
2016,02,16,02,05,9.50
2016,02,16,02,06,9.50
2016,02,16,02,07,9.50
2016,02,16,02,08,9.50
2016,02,16,02,09,9.50
2016,02,16,02,10,9.50
2016,02,16,02,11,9.50
2016,02,16,02,12,9.50
2016,02,16,02,13,9.50
2016,02,16,02,14,9.50
2016,02,16,02,15,9.50
2016,02,16,02,16,9.40
2016,02,16,02,17,9.40
2016,02,16,02,18,9.40
2016,02,16,02,19,9.40
2016,02,16,02,20,9.40
2016,02,16,02,21,9.40
2016,02,16,02,22,9.40
2016,02,16,02,23,9.40
2016,02,16,02,24,9.30
2016,02,16,02,25,9.30
2016,02,16,02,26,9.30
2016,02,16,02,27,9.30
2016,02,16,02,28,9.30
2016,02,16,02,29,9.30
2016,02,16,02,30,9.30
2016,02,16,02,31,9.30
2016,02,16,02,32,9.30
2016,02,16,02,33,9.30
2016,02,16,02,34,9.30
2016,02,16,02,35,9.30
2016,02,16,02,36,9.20
2016,02,16,02,37,9.20
2016,02,16,02,38,9.20
2016,02,16,02,39,9.20
2016,02,16,02,40,9.20
2016,02,16,02,41,9.20
2016,02,16,02,42,9.20
2016,02,16,02,43,9.20
2016,02,16,02,44,9.20
2016,02,16,02,45,9.20
2016,02,16,02,46,9.20
2016,02,16,02,47,9.20
2016,02,16,02,48,9.20
2016,02,16,02,49,9.20
2016,02,16,02,50,9.20
2016,02,16,02,51,9.20
2016,02,16,02,52,9.20
2016,02,16,02,53,9.20
2016,02,16,02,54,9.20
2016,02,16,02,55,9.20
2016,02,16,02,56,9.20
2016,02,16,02,57,9.20
2016,02,16,02,58,9.20
2016,02,16,02,59,9.20
2016,02,16,03,00,9.20
2016,02,16,03,01,9.20
2016,02,16,03,02,9.20
2016,02,16,03,03,9.20
2016,02,16,03,04,9.20
2016,02,16,03,05,9.20
2016,02,16,03,06,9.20
2016,02,16,03,07,9.20
2016,02,16,03,08,9.10
2016,02,16,03,09,9.10
2016,02,16,03,10,9.10
2016,02,16,03,11,9.10
2016,02,16,03,12,9.10
2016,02,16,03,13,9.10
2016,02,16,03,14,9.10
2016,02,16,03,15,9.10
2016,02,16,03,16,9.10
2016,02,16,03,17,9.10
2016,02,16,03,18,9.10
2016,02,16,03,19,9.10
2016,02,16,03,20,9.10
2016,02,16,03,21,9.10
2016,02,16,03,22,9.10
2016,02,16,03,23,9.10
2016,02,16,03,24,9.10
2016,02,16,03,25,9.10
2016,02,16,03,26,9.10
2016,02,16,03,27,9.10
2016,02,16,03,28,9.10
2016,02,16,03,29,9.10
2016,02,16,03,30,9.10
2016,02,16,03,31,9.10
2016,02,16,03,32,9.10
2016,02,16,03,33,9.10
2016,02,16,03,34,9.10
2016,02,16,03,35,9.10
2016,02,16,03,36,9.10
2016,02,16,03,37,9.10
2016,02,16,03,38,9.10
2016,02,16,03,39,9.00
2016,02,16,03,40,9.00
2016,02,16,03,41,9.00
2016,02,16,03,42,8.90
2016,02,16,03,43,8.90
2016,02,16,03,44,8.90
2016,02,16,03,45,8.90
2016,02,16,03,46,8.90
2016,02,16,03,47,8.90
2016,02,16,03,48,8.90
2016,02,16,03,49,8.90
2016,02,16,03,50,8.90
2016,02,16,03,51,8.90
2016,02,16,03,52,8.90
2016,02,16,03,53,8.90
2016,02,16,03,54,8.80
2016,02,16,03,55,8.80
2016,02,16,03,56,8.80
2016,02,16,03,57,8.80
2016,02,16,03,58,8.80
2016,02,16,03,59,8.80
2016,02,16,04,00,8.80
2016,02,16,04,01,8.70
2016,02,16,04,02,8.70
2016,02,16,04,03,8.70
2016,02,16,04,04,8.70
2016,02,16,04,05,8.70
2016,02,16,04,06,8.70
2016,02,16,04,07,8.70
2016,02,16,04,08,8.70
2016,02,16,04,09,8.70
2016,02,16,04,10,8.70
2016,02,16,04,11,8.70
2016,02,16,04,12,8.70
2016,02,16,04,13,8.70
2016,02,16,04,14,8.60
2016,02,16,04,15,8.60
2016,02,16,04,16,8.60
2016,02,16,04,17,8.50
2016,02,16,04,18,8.50
2016,02,16,04,19,8.40
2016,02,16,04,20,8.40
2016,02,16,04,21,8.40
2016,02,16,04,22,8.40
2016,02,16,04,23,8.40
2016,02,16,04,24,8.30
2016,02,16,04,25,8.30
2016,02,16,04,26,8.30
2016,02,16,04,27,8.30
2016,02,16,04,28,8.20
2016,02,16,04,29,8.20
2016,02,16,04,30,8.20
2016,02,16,04,31,8.20
2016,02,16,04,32,8.20
2016,02,16,04,33,8.10
2016,02,16,04,34,8.10
2016,02,16,04,35,8.10
2016,02,16,04,36,8.00
2016,02,16,04,37,8.00
2016,02,16,04,38,8.00
2016,02,16,04,39,7.90
2016,02,16,04,40,7.90
2016,02,16,04,41,7.90
2016,02,16,04,42,7.80
2016,02,16,04,43,7.80
2016,02,16,04,44,7.80
2016,02,16,04,45,7.80
2016,02,16,04,46,7.80
2016,02,16,04,47,7.70
2016,02,16,04,48,7.70
2016,02,16,04,49,7.70
2016,02,16,04,50,7.70
2016,02,16,04,51,7.70
2016,02,16,04,52,7.60
2016,02,16,04,53,7.60
2016,02,16,04,54,7.60
2016,02,16,04,55,7.60
2016,02,16,04,56,7.50
2016,02,16,04,57,7.50
2016,02,16,04,58,7.40
2016,02,16,04,59,7.40
2016,02,16,05,00,7.40
2016,02,16,05,01,7.40
2016,02,16,05,02,7.40
2016,02,16,05,03,7.30
2016,02,16,05,04,7.30
2016,02,16,05,05,7.30
2016,02,16,05,06,7.30
2016,02,16,05,07,7.30
2016,02,16,05,08,7.30
2016,02,16,05,09,7.30
2016,02,16,05,10,7.30
2016,02,16,05,11,7.30
2016,02,16,05,12,7.30
2016,02,16,05,13,7.30
2016,02,16,05,14,7.20
2016,02,16,05,15,7.20
2016,02,16,05,16,7.20
2016,02,16,05,17,7.20
2016,02,16,05,18,7.20
2016,02,16,05,19,7.20
2016,02,16,05,20,7.20
2016,02,16,05,21,7.20
2016,02,16,05,22,7.20
2016,02,16,05,23,7.10
2016,02,16,05,24,7.10
2016,02,16,05,25,7.10
2016,02,16,05,26,7.10
2016,02,16,05,27,7.10
2016,02,16,05,28,7.10
2016,02,16,05,29,7.10
2016,02,16,05,30,7.00
2016,02,16,05,31,7.00
2016,02,16,05,32,6.90
2016,02,16,05,33,6.90
2016,02,16,05,34,6.90
2016,02,16,05,35,6.90
2016,02,16,05,36,6.90
2016,02,16,05,37,6.90
2016,02,16,05,38,6.80
2016,02,16,05,39,6.80
2016,02,16,05,40,6.80
2016,02,16,05,41,6.80
2016,02,16,05,42,6.80
2016,02,16,05,43,6.70
2016,02,16,05,44,6.70
2016,02,16,05,45,6.70
2016,02,16,05,46,6.70
2016,02,16,05,47,6.70
2016,02,16,05,48,6.70
2016,02,16,05,49,6.70
2016,02,16,05,50,6.70
2016,02,16,05,51,6.70
2016,02,16,05,52,6.60
2016,02,16,05,53,6.60
2016,02,16,05,54,6.60
2016,02,16,05,55,6.60
2016,02,16,05,56,6.60
2016,02,16,05,57,6.60
2016,02,16,05,58,6.60
2016,02,16,05,59,6.50
2016,02,16,06,00,6.50
2016,02,16,06,01,6.40
2016,02,16,06,02,6.40
2016,02,16,06,03,6.40
2016,02,16,06,04,6.40
2016,02,16,06,05,6.40
2016,02,16,06,06,6.40
2016,02,16,06,07,6.40
2016,02,16,06,08,6.40
2016,02,16,06,09,6.40
2016,02,16,06,10,6.40
2016,02,16,06,11,6.40
2016,02,16,06,12,6.40
2016,02,16,06,13,6.40
2016,02,16,06,14,6.50
2016,02,16,06,15,6.50
2016,02,16,06,16,6.50
2016,02,16,06,17,6.50
2016,02,16,06,18,6.50
2016,02,16,06,19,6.60
2016,02,16,06,20,6.60
2016,02,16,06,21,6.60
2016,02,16,06,22,6.60
2016,02,16,06,23,6.60
2016,02,16,06,24,6.60
2016,02,16,06,25,6.60
2016,02,16,06,26,6.60
2016,02,16,06,27,6.60
2016,02,16,06,28,6.60
2016,02,16,06,29,6.60
2016,02,16,06,30,6.60
2016,02,16,06,31,6.50
2016,02,16,06,32,6.50
2016,02,16,06,33,6.50
2016,02,16,06,34,6.50
2016,02,16,06,35,6.50
2016,02,16,06,36,6.50
2016,02,16,06,37,6.40
2016,02,16,06,38,6.40
2016,02,16,06,39,6.40
2016,02,16,06,40,6.40
2016,02,16,06,41,6.30
2016,02,16,06,42,6.30
2016,02,16,06,43,6.30
2016,02,16,06,44,6.30
2016,02,16,06,45,6.30
2016,02,16,06,46,6.30
2016,02,16,06,47,6.30
2016,02,16,06,48,6.30
2016,02,16,06,49,6.30
2016,02,16,06,50,6.30
2016,02,16,06,51,6.20
2016,02,16,06,52,6.20
2016,02,16,06,53,6.20
2016,02,16,06,54,6.20
2016,02,16,06,55,6.20
2016,02,16,06,56,6.20
2016,02,16,06,57,6.10
2016,02,16,06,58,6.20
2016,02,16,06,59,6.20
2016,02,16,07,00,6.20
2016,02,16,07,01,6.20
2016,02,16,07,02,6.20
2016,02,16,07,03,6.20
2016,02,16,07,04,6.20
2016,02,16,07,05,6.10
2016,02,16,07,06,6.10
2016,02,16,07,07,6.10
2016,02,16,07,08,6.10
2016,02,16,07,09,6.10
2016,02,16,07,10,6.10
2016,02,16,07,11,6.00
2016,02,16,07,12,6.00
2016,02,16,07,13,6.00
2016,02,16,07,14,6.00
2016,02,16,07,15,6.00
2016,02,16,07,16,5.90
2016,02,16,07,17,5.90
2016,02,16,07,18,5.90
2016,02,16,07,19,5.90
2016,02,16,07,20,5.90
2016,02,16,07,21,5.90
2016,02,16,07,22,5.90
2016,02,16,07,23,5.90
2016,02,16,07,24,5.90
2016,02,16,07,25,5.90
2016,02,16,07,26,5.90
2016,02,16,07,27,5.90
2016,02,16,07,28,5.90
2016,02,16,07,29,5.90
2016,02,16,07,30,5.90
2016,02,16,07,31,5.90
2016,02,16,07,32,5.90
2016,02,16,07,33,5.90
2016,02,16,07,34,5.90
2016,02,16,07,35,5.90
2016,02,16,07,36,5.90
2016,02,16,07,37,5.90
2016,02,16,07,38,5.90
2016,02,16,07,39,5.90
2016,02,16,07,40,5.90
2016,02,16,07,41,5.90
2016,02,16,07,42,5.90
2016,02,16,07,43,5.90
2016,02,16,07,44,5.90
2016,02,16,07,45,5.90
2016,02,16,07,46,5.90
2016,02,16,07,47,5.90
2016,02,16,07,48,5.90
2016,02,16,07,49,5.90
2016,02,16,07,50,5.90
2016,02,16,07,51,5.90
2016,02,16,07,52,5.90
2016,02,16,07,53,5.90
2016,02,16,07,54,5.90
2016,02,16,07,55,5.90
2016,02,16,07,56,6.00
2016,02,16,07,57,6.00
2016,02,16,07,58,6.00
2016,02,16,07,59,6.00
2016,02,16,08,00,6.00
2016,02,16,08,01,6.00
2016,02,16,08,02,6.10
2016,02,16,08,03,6.10
2016,02,16,08,04,6.10
2016,02,16,08,05,6.10
2016,02,16,08,06,6.10
2016,02,16,08,07,6.10
2016,02,16,08,08,6.10
2016,02,16,08,09,6.10
2016,02,16,08,10,6.10
2016,02,16,08,11,6.10
2016,02,16,08,12,6.10
2016,02,16,08,13,6.10
2016,02,16,08,14,6.20
2016,02,16,08,15,6.20
2016,02,16,08,16,6.20
2016,02,16,08,17,6.20
2016,02,16,08,18,6.20
2016,02,16,08,19,6.30
2016,02,16,08,20,6.30
2016,02,16,08,21,6.30
2016,02,16,08,22,6.30
2016,02,16,08,23,6.30
2016,02,16,08,24,6.40
2016,02,16,08,25,6.40
2016,02,16,08,26,6.40
2016,02,16,08,27,6.40
2016,02,16,08,28,6.50
2016,02,16,08,29,6.50
2016,02,16,08,30,6.50
2016,02,16,08,31,6.60
2016,02,16,08,32,6.60
2016,02,16,08,33,6.60
2016,02,16,08,34,6.60
2016,02,16,08,35,6.60
2016,02,16,08,36,6.70
2016,02,16,08,37,6.70
2016,02,16,08,38,6.70
2016,02,16,08,39,6.70
2016,02,16,08,40,6.80
2016,02,16,08,41,6.80
2016,02,16,08,42,6.80
2016,02,16,08,43,6.80
2016,02,16,08,44,6.80
2016,02,16,08,45,6.70
2016,02,16,08,46,6.70
2016,02,16,08,47,6.60
2016,02,16,08,48,6.60
2016,02,16,08,49,6.60
2016,02,16,08,50,6.60
2016,02,16,08,51,6.50
2016,02,16,08,52,6.50
2016,02,16,08,53,6.50
2016,02,16,08,54,6.40
2016,02,16,08,55,6.40
2016,02,16,08,56,6.40
2016,02,16,08,57,6.40
2016,02,16,08,58,6.40
2016,02,16,08,59,6.40
2016,02,16,09,00,6.40
2016,02,16,09,01,6.40
2016,02,16,09,02,6.40
2016,02,16,09,03,6.40
2016,02,16,09,04,6.40
2016,02,16,09,05,6.50
2016,02,16,09,06,6.50
2016,02,16,09,07,6.60
2016,02,16,09,08,6.60
2016,02,16,09,09,6.60
2016,02,16,09,10,6.70
2016,02,16,09,11,6.80
2016,02,16,09,12,6.80
2016,02,16,09,13,6.80
2016,02,16,09,14,6.80
2016,02,16,09,15,6.80
2016,02,16,09,16,6.90
2016,02,16,09,17,6.90
2016,02,16,09,18,6.90
2016,02,16,09,19,7.00
2016,02,16,09,20,7.00
2016,02,16,09,21,7.10
2016,02,16,09,22,7.10
2016,02,16,09,23,7.20
2016,02,16,09,24,7.20
2016,02,16,09,25,7.30
2016,02,16,09,26,7.30
2016,02,16,09,27,7.40
2016,02,16,09,28,7.40
2016,02,16,09,29,7.50
2016,02,16,09,30,7.60
2016,02,16,09,31,7.60
2016,02,16,09,32,7.60
2016,02,16,09,33,7.70
2016,02,16,09,34,7.70
2016,02,16,09,35,7.80
2016,02,16,09,36,7.80
2016,02,16,09,37,8.00
2016,02,16,09,38,8.00
2016,02,16,09,39,8.10
2016,02,16,09,40,8.00
2016,02,16,09,41,7.90
2016,02,16,09,42,7.70
2016,02,16,09,43,7.50
2016,02,16,09,44,7.40
2016,02,16,09,45,7.30
2016,02,16,09,46,7.30
2016,02,16,09,47,7.30
2016,02,16,09,48,7.30
2016,02,16,09,49,7.30
2016,02,16,09,50,7.20
2016,02,16,09,51,7.20
2016,02,16,09,52,7.20
2016,02,16,09,53,7.20
2016,02,16,09,54,7.30
2016,02,16,09,55,7.20
2016,02,16,09,56,7.20
2016,02,16,09,57,7.20
2016,02,16,09,58,7.20
2016,02,16,09,59,7.30
2016,02,16,10,00,7.30
2016,02,16,10,01,7.30
2016,02,16,10,02,7.30
2016,02,16,10,03,7.30
2016,02,16,10,04,7.40
2016,02,16,10,05,7.40
2016,02,16,10,06,7.40
2016,02,16,10,07,7.50
2016,02,16,10,08,7.50
2016,02,16,10,09,7.50
2016,02,16,10,10,7.50
2016,02,16,10,11,7.50
2016,02,16,10,12,7.60
2016,02,16,10,13,7.60
2016,02,16,10,14,7.60
2016,02,16,10,15,7.60
2016,02,16,10,16,7.70
2016,02,16,10,17,7.70
2016,02,16,10,18,7.80
2016,02,16,10,19,7.80
2016,02,16,10,20,7.80
2016,02,16,10,21,7.90
2016,02,16,10,22,8.00
2016,02,16,10,23,8.10
2016,02,16,10,24,8.20
2016,02,16,10,25,8.30
2016,02,16,10,26,8.40
2016,02,16,10,27,8.50
2016,02,16,10,28,8.60
2016,02,16,10,29,8.70
2016,02,16,10,30,8.80
2016,02,16,10,31,8.80
2016,02,16,10,32,8.90
2016,02,16,10,33,9.00
2016,02,16,10,34,9.10
2016,02,16,10,35,9.10
2016,02,16,10,36,9.30
2016,02,16,10,37,9.50
2016,02,16,10,38,9.60
2016,02,16,10,39,9.70
2016,02,16,10,40,9.80
2016,02,16,10,41,9.90
2016,02,16,10,42,10.00
2016,02,16,10,43,10.10
2016,02,16,10,44,10.20
2016,02,16,10,45,10.20
2016,02,16,10,46,10.40
2016,02,16,10,47,10.50
2016,02,16,10,48,10.60
2016,02,16,10,49,10.70
2016,02,16,10,50,10.70
2016,02,16,10,51,10.80
2016,02,16,10,52,10.80
2016,02,16,10,53,10.80
2016,02,16,10,54,10.80
2016,02,16,10,55,10.80
2016,02,16,10,56,10.90
2016,02,16,10,57,11.00
2016,02,16,10,58,11.00
2016,02,16,10,59,10.90
2016,02,16,11,00,10.80
2016,02,16,11,01,10.80
2016,02,16,11,02,10.80
2016,02,16,11,03,10.70
2016,02,16,11,04,10.60
2016,02,16,11,05,10.50
2016,02,16,11,06,10.50
2016,02,16,11,07,10.40
2016,02,16,11,08,10.30
2016,02,16,11,09,10.40
2016,02,16,11,10,10.50
2016,02,16,11,11,10.60
2016,02,16,11,12,10.80
2016,02,16,11,13,11.00
2016,02,16,11,14,11.20
2016,02,16,11,15,11.30
2016,02,16,11,16,11.40
2016,02,16,11,17,11.60
2016,02,16,11,18,11.70
2016,02,16,11,19,11.70
2016,02,16,11,20,11.80
2016,02,16,11,21,11.80
2016,02,16,11,22,11.90
2016,02,16,11,23,12.00
2016,02,16,11,24,12.10
2016,02,16,11,25,12.20
2016,02,16,11,26,12.20
2016,02,16,11,27,12.20
2016,02,16,11,28,12.20
2016,02,16,11,29,12.20
2016,02,16,11,30,12.20
2016,02,16,11,31,12.20
2016,02,16,11,32,12.20
2016,02,16,11,33,12.20
2016,02,16,11,34,12.30
2016,02,16,11,35,12.30
2016,02,16,11,36,12.40
2016,02,16,11,37,12.40
2016,02,16,11,38,12.40
2016,02,16,11,39,12.40
2016,02,16,11,40,12.40
2016,02,16,11,41,12.40
2016,02,16,11,42,12.50
2016,02,16,11,43,12.50
2016,02,16,11,44,12.40
2016,02,16,11,45,12.40
2016,02,16,11,46,12.40
2016,02,16,11,47,12.40
2016,02,16,11,48,12.40
2016,02,16,11,49,12.50
2016,02,16,11,50,12.50
2016,02,16,11,51,12.60
2016,02,16,11,52,12.60
2016,02,16,11,53,12.50
2016,02,16,11,54,12.40
2016,02,16,11,55,12.40
2016,02,16,11,56,12.40
2016,02,16,11,57,12.40
2016,02,16,11,58,12.40
2016,02,16,11,59,12.40
2016,02,16,12,00,12.40
2016,02,16,12,01,12.50
2016,02,16,12,02,12.50
2016,02,16,12,03,12.40
2016,02,16,12,04,12.40
2016,02,16,12,05,12.40
2016,02,16,12,06,12.40
2016,02,16,12,07,12.50
2016,02,16,12,08,12.60
2016,02,16,12,09,12.60
2016,02,16,12,10,12.60
2016,02,16,12,11,12.60
2016,02,16,12,12,12.70
2016,02,16,12,13,12.60
2016,02,16,12,14,12.60
2016,02,16,12,15,12.60
2016,02,16,12,16,12.70
2016,02,16,12,17,12.60
2016,02,16,12,18,12.60
2016,02,16,12,19,12.50
2016,02,16,12,20,12.40
2016,02,16,12,21,12.40
2016,02,16,12,22,12.40
2016,02,16,12,23,12.40
2016,02,16,12,24,12.30
2016,02,16,12,25,12.30
2016,02,16,12,26,12.30
2016,02,16,12,27,12.40
2016,02,16,12,28,12.50
2016,02,16,12,29,12.60
2016,02,16,12,30,12.70
2016,02,16,12,31,12.80
2016,02,16,12,32,12.80
2016,02,16,12,33,12.80
2016,02,16,12,34,12.70
2016,02,16,12,35,12.60
2016,02,16,12,36,12.60
2016,02,16,12,37,12.60
2016,02,16,12,38,12.60
2016,02,16,12,39,12.60
2016,02,16,12,40,12.70
2016,02,16,12,41,12.70
2016,02,16,12,42,12.80
2016,02,16,12,43,12.80
2016,02,16,12,44,12.90
2016,02,16,12,45,12.90
2016,02,16,12,46,12.90
2016,02,16,12,47,12.80
2016,02,16,12,48,12.80
2016,02,16,12,49,12.80
2016,02,16,12,50,12.80
2016,02,16,12,51,12.70
2016,02,16,12,52,12.70
2016,02,16,12,53,12.80
2016,02,16,12,54,12.80
2016,02,16,12,55,12.80
2016,02,16,12,56,12.80
2016,02,16,12,57,12.80
2016,02,16,12,58,12.80
2016,02,16,12,59,12.70
2016,02,16,13,00,12.70
2016,02,16,13,01,12.70
2016,02,16,13,02,12.70
2016,02,16,13,03,12.70
2016,02,16,13,04,12.70
2016,02,16,13,05,12.70
2016,02,16,13,06,12.70
2016,02,16,13,07,12.70
2016,02,16,13,08,12.70
2016,02,16,13,09,12.70
2016,02,16,13,10,12.70
2016,02,16,13,11,12.60
2016,02,16,13,12,12.50
2016,02,16,13,13,12.50
2016,02,16,13,14,12.50
2016,02,16,13,15,12.60
2016,02,16,13,16,12.70
2016,02,16,13,17,12.70
2016,02,16,13,18,12.70
2016,02,16,13,19,12.80
2016,02,16,13,20,12.90
2016,02,16,13,21,12.90
2016,02,16,13,22,12.90
2016,02,16,13,23,13.00
2016,02,16,13,24,13.10
2016,02,16,13,25,13.20
2016,02,16,13,26,13.20
2016,02,16,13,27,13.00
2016,02,16,13,28,12.90
2016,02,16,13,29,12.80
2016,02,16,13,30,12.80
2016,02,16,13,31,12.70
2016,02,16,13,32,12.70
2016,02,16,13,33,12.70
2016,02,16,13,34,12.60
2016,02,16,13,35,12.50
2016,02,16,13,36,12.40
2016,02,16,13,37,12.30
2016,02,16,13,38,12.20
2016,02,16,13,39,12.20
2016,02,16,13,40,12.10
2016,02,16,13,41,12.10
2016,02,16,13,42,12.10
2016,02,16,13,43,12.10
2016,02,16,13,44,12.20
2016,02,16,13,45,12.20
2016,02,16,13,46,12.30
2016,02,16,13,47,12.40
2016,02,16,13,48,12.40
2016,02,16,13,49,12.50
2016,02,16,13,50,12.60
2016,02,16,13,51,12.70
2016,02,16,13,52,12.80
2016,02,16,13,53,12.90
2016,02,16,13,54,13.00
2016,02,16,13,55,13.10
2016,02,16,13,56,13.10
2016,02,16,13,57,13.10
2016,02,16,13,58,13.20
2016,02,16,13,59,13.20
2016,02,16,14,00,13.30
2016,02,16,14,01,13.30
2016,02,16,14,02,13.40
2016,02,16,14,03,13.40
2016,02,16,14,04,13.30
2016,02,16,14,05,13.30
2016,02,16,14,06,13.20
2016,02,16,14,07,13.20
2016,02,16,14,08,13.10
2016,02,16,14,09,13.00
2016,02,16,14,10,12.90
2016,02,16,14,11,12.80
2016,02,16,14,12,12.80
2016,02,16,14,13,12.80
2016,02,16,14,14,12.80
2016,02,16,14,15,12.90
2016,02,16,14,16,12.90
2016,02,16,14,17,12.90
2016,02,16,14,18,12.80
2016,02,16,14,19,12.80
2016,02,16,14,20,12.70
2016,02,16,14,21,12.70
2016,02,16,14,22,12.80
2016,02,16,14,23,12.80
2016,02,16,14,24,12.90
2016,02,16,14,25,12.80
2016,02,16,14,26,12.80
2016,02,16,14,27,12.70
2016,02,16,14,28,12.40
2016,02,16,14,29,12.20
2016,02,16,14,30,12.00
2016,02,16,14,31,11.90
2016,02,16,14,32,11.80
2016,02,16,14,33,11.70
2016,02,16,14,34,11.50
2016,02,16,14,35,11.40
2016,02,16,14,36,11.40
2016,02,16,14,37,11.30
2016,02,16,14,38,11.30
2016,02,16,14,39,11.30
2016,02,16,14,40,11.30
2016,02,16,14,41,11.30
2016,02,16,14,42,11.30
2016,02,16,14,43,11.20
2016,02,16,14,44,11.20
2016,02,16,14,45,11.20
2016,02,16,14,46,11.20
2016,02,16,14,47,11.20
2016,02,16,14,48,11.20
2016,02,16,14,49,11.20
2016,02,16,14,50,11.20
2016,02,16,14,51,11.10
2016,02,16,14,52,11.10
2016,02,16,14,53,11.10
2016,02,16,14,54,11.20
2016,02,16,14,55,11.20
2016,02,16,14,56,11.20
2016,02,16,14,57,11.20
2016,02,16,14,58,11.20
2016,02,16,14,59,11.30
2016,02,16,15,00,11.30
2016,02,16,15,01,11.20
2016,02,16,15,02,11.20
2016,02,16,15,03,11.10
2016,02,16,15,04,11.10
2016,02,16,15,05,11.10
2016,02,16,15,06,11.10
2016,02,16,15,07,11.10
2016,02,16,15,08,11.10
2016,02,16,15,09,11.10
2016,02,16,15,10,11.10
2016,02,16,15,11,11.10
2016,02,16,15,12,11.10
2016,02,16,15,13,11.10
2016,02,16,15,14,11.10
2016,02,16,15,15,11.10
2016,02,16,15,16,11.10
2016,02,16,15,17,11.10
2016,02,16,15,18,11.10
2016,02,16,15,19,11.10
2016,02,16,15,20,11.10
2016,02,16,15,21,11.00
2016,02,16,15,22,11.00
2016,02,16,15,23,11.00
2016,02,16,15,24,11.00
2016,02,16,15,25,10.90
2016,02,16,15,26,10.90
2016,02,16,15,27,10.80
2016,02,16,15,28,10.80
2016,02,16,15,29,10.80
2016,02,16,15,30,10.80
2016,02,16,15,31,10.80
2016,02,16,15,32,10.70
2016,02,16,15,33,10.70
2016,02,16,15,34,10.70
2016,02,16,15,35,10.70
2016,02,16,15,36,10.70
2016,02,16,15,37,10.70
2016,02,16,15,38,10.60
2016,02,16,15,39,10.60
2016,02,16,15,40,10.60
2016,02,16,15,41,10.60
2016,02,16,15,42,10.60
2016,02,16,15,43,10.60
2016,02,16,15,44,10.60
2016,02,16,15,45,10.60
2016,02,16,15,46,10.60
2016,02,16,15,47,10.60
2016,02,16,15,48,10.60
2016,02,16,15,49,10.60
2016,02,16,15,50,10.50
2016,02,16,15,51,10.50
2016,02,16,15,52,10.50
2016,02,16,15,53,10.50
2016,02,16,15,54,10.50
2016,02,16,15,55,10.50
2016,02,16,15,56,10.50
2016,02,16,15,57,10.40
2016,02,16,15,58,10.40
2016,02,16,15,59,10.40
2016,02,16,16,00,10.40
2016,02,16,16,01,10.40
2016,02,16,16,02,10.40
2016,02,16,16,03,10.40
2016,02,16,16,04,10.30
2016,02,16,16,05,10.30
2016,02,16,16,06,10.30
2016,02,16,16,07,10.30
2016,02,16,16,08,10.30
2016,02,16,16,09,10.30
2016,02,16,16,10,10.30
2016,02,16,16,11,10.30
2016,02,16,16,12,10.30
2016,02,16,16,13,10.30
2016,02,16,16,14,10.30
2016,02,16,16,15,10.30
2016,02,16,16,16,10.30
2016,02,16,16,17,10.30
2016,02,16,16,18,10.30
2016,02,16,16,19,10.30
2016,02,16,16,20,10.30
2016,02,16,16,21,10.30
2016,02,16,16,22,10.30
2016,02,16,16,23,10.30
2016,02,16,16,24,10.30
2016,02,16,16,25,10.30
2016,02,16,16,26,10.30
2016,02,16,16,27,10.40
2016,02,16,16,28,10.40
2016,02,16,16,29,10.40
2016,02,16,16,30,10.40
2016,02,16,16,31,10.40
2016,02,16,16,32,10.40
2016,02,16,16,33,10.40
2016,02,16,16,34,10.40
2016,02,16,16,35,10.40
2016,02,16,16,36,10.40
2016,02,16,16,37,10.40
2016,02,16,16,38,10.30
2016,02,16,16,39,10.40
2016,02,16,16,40,10.30
2016,02,16,16,41,10.30
2016,02,16,16,42,10.30
2016,02,16,16,43,10.30
2016,02,16,16,44,10.30
2016,02,16,16,45,10.30
2016,02,16,16,46,10.30
2016,02,16,16,47,10.30
2016,02,16,16,48,10.30
2016,02,16,16,49,10.30
2016,02,16,16,50,10.30
2016,02,16,16,51,10.30
2016,02,16,16,52,10.30
2016,02,16,16,53,10.20
2016,02,16,16,54,10.20
2016,02,16,16,55,10.20
2016,02,16,16,56,10.20
2016,02,16,16,57,10.20
2016,02,16,16,58,10.20
2016,02,16,16,59,10.20
2016,02,16,17,00,10.20
2016,02,16,17,01,10.20
2016,02,16,17,02,10.20
2016,02,16,17,03,10.10
2016,02,16,17,04,10.10
2016,02,16,17,05,10.10
2016,02,16,17,06,10.10
2016,02,16,17,07,10.10
2016,02,16,17,08,10.10
2016,02,16,17,09,10.10
2016,02,16,17,10,10.10
2016,02,16,17,11,10.10
2016,02,16,17,12,10.10
2016,02,16,17,13,10.10
2016,02,16,17,14,10.10
2016,02,16,17,15,10.10
2016,02,16,17,16,10.10
2016,02,16,17,17,10.10
2016,02,16,17,18,10.10
2016,02,16,17,19,10.10
2016,02,16,17,20,10.10
2016,02,16,17,21,10.10
2016,02,16,17,22,10.10
2016,02,16,17,23,10.10
2016,02,16,17,24,10.10
2016,02,16,17,25,10.00
2016,02,16,17,26,10.00
2016,02,16,17,27,10.00
2016,02,16,17,28,10.00
2016,02,16,17,29,10.00
2016,02,16,17,30,10.00
2016,02,16,17,31,10.00
2016,02,16,17,32,10.00
2016,02,16,17,33,10.00
2016,02,16,17,34,10.00
2016,02,16,17,35,10.00
2016,02,16,17,36,10.00
2016,02,16,17,37,10.00
2016,02,16,17,38,10.00
2016,02,16,17,39,10.00
2016,02,16,17,40,9.90
2016,02,16,17,41,9.90
2016,02,16,17,42,9.90
2016,02,16,17,43,9.90
2016,02,16,17,44,9.90
2016,02,16,17,45,9.90
2016,02,16,17,46,9.90
2016,02,16,17,47,9.90